Location: *
(34.6780°N, 135.8310°E)
Time: 03:21:27
(UTC+00:00)

Cosmos 1610 Rocket - Pass Details

Date: 18 October 2019
Orbit: 953 x 1002 km, 82.9° (Epoch: 11 November)

Event Time Altitude Azimuth Distance (km) Brightness Sun altitude
Rises 19:37:02 0° 189° (S) 3,650 7.4 -18.8°
Reaches altitude 10° 19:39:32 10° 190° (S) 2,714 6.7 -18.3°
Maximum altitude 19:45:45 77° 276° (W) 1,013 4.4 -17.0°
Drops below altitude 10° 19:52:06 10° 3° (N) 2,762 6.9 -15.7°
Sets 19:54:39 0° 5° (N) 3,720 7.6 -15.2°
